Regional Weather Roundup
Issued by NWS

Home | Current Version | Previous Version | Text Only | Print | Product List | Glossary On
Versions: 1 2 3 4 5 6 7 8 9 10 11 12 13 14 15 16 17 18 19 20 21 22 23 24 25 26 27 28 29 30 31 32 33 34 35 36 37 38 39 40 41 42 43 44 45 46 47 48 49 50
000
ASUS46 KSEW 011710
RWRWA

WASHINGTON REGIONAL WEATHER ROUNDUP
NATIONAL WEATHER SERVICE SEATTLE WA
1000 AM PDT WED JUL 01 2015

NOTE:"FAIR" INDICATES FEW OR NO CLOUDS BELOW 12,000 FEET WITH NO
SIGNIFICANT WEATHER AND/OR OBSTRUCTIONS TO VISIBILITY.

WAZ505-507>509-011800-
SEATTLE, TACOMA, EVERETT, AND VICINITY

CITY           SKY/WX    TMP DP  RH WIND       PRES   REMARKS
EVERETT        SUNNY     69  56  62 VRB5      30.06F
BOEING FIELD   SUNNY     76  54  46 NW7       30.03F
RENTON         SUNNY     73  56  54 NW6       30.03F
SEATAC AIRPORT SUNNY     76  55  48 NE8       30.05F
JBLM-MCCHORD   SUNNY    N/A N/A N/A N15         N/A
PUYALLUP       FAIR      75  57  53 VRB3      30.05S
BREMERTON      SUNNY     73  55  53 N13       30.06F
JBLM-FT LEWIS  SUNNY     74  54  49 N15       30.04S
TACOMA NARROWS SUNNY     70  53  54 N9G17     30.04F
$$

WAZ001-503-506-510-514-515-011800-
NORTH INTERIOR

CITY           SKY/WX    TMP DP  RH WIND       PRES   REMARKS
BELLINGHAM     SUNNY     74  59  59 NW5       30.05F
FRIDAY HARBOR  SUNNY     70  54  56 N9        30.07F
EASTSOUND      SUNNY     64  57  77 N6        30.06F
PORT ANGELES   SUNNY     73  52  47 E10       30.08S
PORT TOWNSEND  FAIR      72  55  56 NW9G15    30.06F
NAS WHIDBEY    MOSUNNY   64  54  69 W8        30.10F
ARLINGTON      SUNNY     72  57  60 NW5       30.05F
BURLINGTON     SUNNY     70  61  73 W10       30.05F
$$

WAZ020-022-039-040-504-511-512-011800-
SOUTHWEST INTERIOR

CITY           SKY/WX    TMP DP  RH WIND       PRES   REMARKS
SHELTON        SUNNY     72  54  53 VRB5      30.02F
OLYMPIA        SUNNY     74  53  48 NE9       30.04F
CHEHALIS       FAIR      75  57  53 N10       30.03F
KELSO          SUNNY     70  55  60 W7        30.04F
VANCOUVER      SUNNY     73  55  53 NW8       29.98F
SCAPPOOSE, OR  SUNNY     74  55  51 NE10      29.98F
PORTLAND, OR   SUNNY     72  56  57 NW7       29.99F
$$

WAZ021-516-517-011800-
WASHINGTON COAST

CITY           SKY/WX    TMP DP  RH WIND       PRES   REMARKS
FORKS          SUNNY     71  58  63 SW5       30.05F
HOQUIAM        SUNNY     62  57  83 S3        30.05S HAZE
ASTORIA, OR    MOSUNNY   65  57  75 CALM      30.02F
$$

WAZ019-023-024-040-518-519-011800-
CASCADE MOUNTAINS AND COLUMBIA GORGE

CITY           SKY/WX    TMP DP  RH WIND       PRES   REMARKS
TROUTDALE, OR  SUNNY     73  57  57 SW5       29.97F
THE DALLES, OR SUNNY     82  58  43 NW12      29.95F
$$

WAZ026-027-041>044-520-521-011800-
EAST SLOPES

CITY           SKY/WX    TMP DP  RH WIND       PRES   REMARKS
OMAK           SUNNY     83  51  33 NE18G28   30.03S
WENATCHEE      SUNNY     82  50  32 W8        30.00F
ELLENSBURG     SUNNY     83  52  34 VRB3      30.03S
YAKIMA         SUNNY     87  51  28 W6        29.99F
$$

WAZ028-034-035-011800-
COLUMBIA BASIN

CITY           SKY/WX    TMP DP  RH WIND       PRES   REMARKS
EPHRATA        SUNNY     88  50  27 NE14G21   29.98S
MOSES LAKE     SUNNY     89  51  27 N10G21    29.98S
PASCO          SUNNY     88  53  30 N6        29.95F
HERMISTON, OR  SUNNY     88  53  30 E7        29.96F
$$

WAZ036>038-011800-
NORTHEAST WASHINGTON

CITY           SKY/WX    TMP DP  RH WIND       PRES   REMARKS
SPOKANE GEIGER SUNNY     81  50  33 VRB5      30.02S
SPOKANE FELTS  SUNNY     82  52  35 NW3       30.01S
FAIRCHILD AFB  SUNNY     81  50  34 NE5       30.03R
COEURDALENE,ID SUNNY     81  55  41 SW3       30.01S
DEER PARK      SUNNY     80  55  42 VRB3      30.02S
$$

WAZ029>033-011800-
SOUTHEAST WASHINGTON

CITY           SKY/WX    TMP DP  RH WIND       PRES   REMARKS
PULLMAN        SUNNY     81  50  33 W8        30.06R
LEWISTON, ID   SUNNY     86  50  28 CALM      29.98F
WALLA WALLA    SUNNY     85  52  32 SW6       29.99S
PENDLETON, OR  SUNNY     84  50  30 VRB5      30.00F
$$


USA.gov is the U.S. government's official web portal to all federal, state and local government web resources and services.